VERONIKA
1 58261U 23174F   24214.81921317  .00027268  00000-0  11512-2 0  9991
2 58261  97.4590 289.2370 0012588  87.4063 272.8615 15.23168784 40652
KAFASAT
1 58317U 23174BP  24214.85993662  .00034242  00000-0  12870-2 0  9997
2 58317  97.4534 290.0602 0010733  65.8129 294.4231 15.27033252 40720
ENSO
1 58470U 23185J   24214.89717677  .00023467  00000-0  93891-3 0  9993
2 58470  97.4243 281.1827 0013537 118.3802 241.8803 15.24998551 37102
EIRSAT-1
1 58472U 23185L   24214.85093362  .00027157  00000-0  10613-2 0  9999
2 58472  97.4239 281.2207 0013096 119.6574 240.5970 15.25759656 37105
SO-121
1 58567U 23174CY  24214.70123650  .00083909  00000-0  24075-2 0  9994
2 58567  97.4508 290.7371 0009430  75.6580 284.5709 15.35504849 40757
SONATE-2
1 59112U 24043Q   24214.88195716  .00016495  00000-0  77025-3 0  9998
2 59112  97.4828 338.2727 0015511 133.0658 227.1878 15.19788769 22740
KASHIWA
1 59508U 98067WH  24214.85290321  .00746568  24808-3  18805-2 0  9995
2 59508  51.6211  75.4968 0008825 219.2787 140.7581 15.94959417 17708
MESAT1
1 60209U 24125G   24214.86089997  .00016165  00000-0  75002-3 0  9996
2 60209  97.3200  66.8859 0027158 160.7785 199.4481 15.19782011  4352
GRBBeta
1 60237U 24128C   24214.57412739  .00005375  00000-0  48014-3 0  9996
2 60237  61.9949  83.0393 0010920 298.6183  61.3806 14.97042773  3396
ROBUSTA-3A
1 60243U 24128J   24214.59149051  .00007948  00000-0  72100-3 0  9990
2 60243  61.9925  83.1098 0012737 270.1754  89.7874 14.95958145  3405
CatSat
1 60246U 24125J   24214.67696125  .00012687  00000-0  57892-3 0  9995
2 60246  97.3022  68.0263 0054200 116.5062 244.1745 15.19405794  2442
